Maple Lake, MN

2:42 AM CST on January 22, 2017 (GMT -0600)
Maple Lake Municipal

Weather History for KMGG - November, 2012

Change the Weather History Date:

Thursday, November 22, 2012

  Actual Average (KSTC) Record (KSTC)
Temperature  
Mean Temperature 38 °F -  
Max Temperature 54 °F 34 °F 56 °F (1980)
Min Temperature 21 °F 17 °F -13 °F (1896)
Degree Days  
Heating Degree Days 27    
Moisture  
Dew Point 34 °F    
Average Humidity 80    
Maximum Humidity 98    
Minimum Humidity 65    
Precipitation  
Precipitation 0.02 in - - ()
Sea Level Pressure  
Sea Level Pressure 29.75 in    
Wind  
Wind Speed 10 mph (WSW)    
Max Wind Speed 26 mph    
Max Gust Speed 32 mph    
Visibility 8 miles    
Events Snow    
Averages and records for this station are not official NWS values.
T = Trace of Precipitation, MM = Missing Value Source: NWS Daily Summary

Daily Weather History Graph

Daily Weather History Graph

Search for Another Location

Airport or City:

Trip Planner

Search our weather history database for the weather conditions in past years. The results will help you decide how hot, cold, wet, or windy it might be!

Date:

Astronomy

Nov. 22, 2012 Rise Set
Actual Time 7:24 AM CST 4:39 PM CST
Civil Twilight 6:51 AM CST 5:12 PM CST
Nautical Twilight 6:15 AM CST 5:48 PM CST
Astronomical Twilight 5:40 AM CST 6:23 PM CST
Moon 1:38 PM CST 1:30 AM CST
Length of Visible Light 10h 20m
Length of Day
9h 15m
Waxing Gibbous, 71% of the Moon is Illuminated
Nov 22
Waxing Gibbous
Nov 28
Full
Dec 6
Last Quarter
Dec 13
New
Dec 19
First Quarter

Hourly Weather History & Observations

Time (CST) Temp. Windchill Dew Point Humidity Pressure Visibility Wind Dir Wind Speed Gust Speed Precip Events Conditions
12:15 AM 54.7 °F - 43.0 °F 65% 29.65 in 10.0 mi South 9.2 mph 16.1 mph N/A   Clear
12:35 AM 53.8 °F - 43.0 °F 67% 29.64 in 10.0 mi South 9.2 mph - N/A   Clear
12:55 AM 53.2 °F - 43.0 °F 68% 29.63 in 10.0 mi South 9.2 mph - N/A   Clear
1:14 AM 52.9 °F - 43.0 °F 69% 29.62 in 10.0 mi South 9.2 mph 17.3 mph N/A   Clear
1:34 AM 52.3 °F - 43.2 °F 71% 29.61 in 10.0 mi South 8.1 mph 16.1 mph N/A   Clear
1:55 AM 52.0 °F - 43.2 °F 72% 29.61 in 10.0 mi South 10.4 mph 16.1 mph N/A   Clear
2:14 AM 51.4 °F - 43.2 °F 73% 29.61 in 10.0 mi South 6.9 mph - N/A   Clear
2:34 AM 51.1 °F - 43.0 °F 74% 29.61 in 10.0 mi South 5.8 mph - N/A   Clear
2:55 AM 50.7 °F - 43.2 °F 75% 29.60 in 10.0 mi South 6.9 mph - N/A   Clear
3:14 AM 50.2 °F - 43.2 °F 77% 29.60 in 10.0 mi South 6.9 mph - N/A   Clear
3:35 AM 50.0 °F - 43.2 °F 77% 29.59 in 10.0 mi South 6.9 mph - N/A   Clear
3:54 AM 50.2 °F - 43.3 °F 77% 29.59 in 10.0 mi South 8.1 mph - N/A   Clear
4:14 AM 50.0 °F - 43.7 °F 79% 29.59 in 10.0 mi South 5.8 mph - N/A   Clear
4:35 AM 49.6 °F - 43.5 °F 79% 29.59 in 10.0 mi SSW 5.8 mph - N/A   Clear
4:54 AM 49.3 °F - 43.5 °F 81% 29.58 in 10.0 mi South 8.1 mph - N/A   Clear
5:14 AM 49.1 °F - 43.3 °F 81% 29.58 in 10.0 mi South 5.8 mph - N/A   Clear
5:35 AM 49.1 °F - 43.2 °F 80% 29.60 in 10.0 mi SSW 5.8 mph - N/A   Clear
5:54 AM 48.2 °F - 42.8 °F 82% 29.60 in 10.0 mi SSW 5.8 mph - N/A   Clear
6:14 AM 48.2 °F - 42.8 °F 82% 29.60 in 10.0 mi SSW 6.9 mph - N/A   Clear
6:35 AM 48.0 °F - 42.4 °F 81% 29.60 in 10.0 mi SSW 6.9 mph - N/A   Clear
6:54 AM 47.3 °F - 41.9 °F 82% 29.61 in 10.0 mi SW 4.6 mph - N/A   Clear
7:14 AM 46.6 °F - 41.4 °F 82% 29.61 in 10.0 mi Calm Calm - N/A   Clear
7:54 AM 44.2 °F - 39.4 °F 83% 29.61 in 10.0 mi Calm Calm - N/A   Clear
8:14 AM 44.1 °F 42.5 °F 39.9 °F 85% 29.61 in 10.0 mi SSE 3.5 mph - N/A   Clear
8:35 AM 44.1 °F - 40.6 °F 88% 29.61 in 10.0 mi Calm Calm - N/A   Clear
8:54 AM 49.1 °F - 40.5 °F 72% 29.61 in 10.0 mi SW 4.6 mph - N/A   Clear
9:15 AM 50.2 °F - 39.2 °F 66% 29.63 in 10.0 mi SW 4.6 mph - N/A   Clear
9:35 AM 49.1 °F - 38.3 °F 66% 29.64 in 10.0 mi West 8.1 mph - N/A   Clear
9:54 AM 48.7 °F - 37.4 °F 65% 29.64 in 10.0 mi West 6.9 mph - N/A   Clear
10:15 AM 47.8 °F - 37.4 °F 67% 29.65 in 10.0 mi West 6.9 mph - N/A   Clear
10:34 AM 47.7 °F - 37.2 °F 67% 29.67 in 10.0 mi West 9.2 mph - N/A   Clear
10:55 AM 47.1 °F - 37.2 °F 68% 29.69 in 10.0 mi West 11.5 mph 20.7 mph N/A   Clear
11:14 AM 48.4 °F - 37.8 °F 67% 29.69 in 10.0 mi West 17.3 mph 23.0 mph N/A   Clear
11:34 AM 46.4 °F 40.1 °F 37.4 °F 71% 29.70 in 10.0 mi West 15.0 mph 24.2 mph N/A   Clear
11:55 AM 44.6 °F 36.9 °F 36.1 °F 72% 29.71 in 7.0 mi WNW 18.4 mph 24.2 mph N/A   Clear
12:15 PM 41.0 °F 33.5 °F 34.7 °F 78% 29.71 in 10.0 mi WNW 13.8 mph 26.5 mph N/A   Clear
12:34 PM 41.0 °F 33.5 °F 34.7 °F 78% 29.71 in 10.0 mi WNW 13.8 mph 23.0 mph N/A   Clear
12:54 PM 41.7 °F 33.1 °F 34.2 °F 75% 29.73 in 10.0 mi WNW 18.4 mph 25.3 mph N/A   Scattered Clouds
1:14 PM 39.2 °F 30.5 °F 33.3 °F 79% 29.75 in 10.0 mi WNW 16.1 mph 21.9 mph N/A   Overcast
1:35 PM 38.5 °F 30.3 °F 32.7 °F 80% 29.76 in 10.0 mi WNW 13.8 mph 23.0 mph N/A   Overcast
1:54 PM 37.9 °F 28.9 °F 32.0 °F 79% 29.78 in 10.0 mi WNW 16.1 mph 25.3 mph N/A   Overcast
2:14 PM 37.6 °F 28.1 °F 32.0 °F 80% 29.80 in 10.0 mi WNW 17.3 mph 24.2 mph N/A   Overcast
2:35 PM 37.4 °F 28.5 °F 31.8 °F 80% 29.80 in 10.0 mi WNW 15.0 mph 25.3 mph N/A   Overcast
2:54 PM 37.2 °F 26.4 °F 31.6 °F 80% 29.81 in 10.0 mi WNW 21.9 mph 28.8 mph N/A   Overcast
3:15 PM 35.4 °F 26.4 °F 31.6 °F 86% 29.81 in 7.0 mi WNW 13.8 mph 20.7 mph N/A Snow Light Snow
3:34 PM 33.1 °F 22.2 °F 31.1 °F 92% 29.83 in 3.0 mi West 17.3 mph 27.6 mph N/A Snow Light Snow
3:54 PM 32.2 °F 21.4 °F 31.6 °F 98% 29.85 in 1.8 mi WNW 16.1 mph 23.0 mph 0.01 in Snow Light Snow
4:15 PM 32.0 °F 22.1 °F 30.7 °F 95% 29.86 in 5.0 mi WNW 13.8 mph 18.4 mph N/A Snow Light Snow
4:35 PM 32.0 °F 22.1 °F 31.1 °F 96% 29.87 in 3.0 mi WNW 13.8 mph 18.4 mph N/A Snow Light Snow
4:55 PM 32.0 °F 21.2 °F 30.7 °F 95% 29.88 in 2.5 mi WNW 16.1 mph - N/A Snow Light Snow
5:15 PM 31.6 °F 22.6 °F 29.7 °F 92% 29.89 in 2.0 mi WNW 11.5 mph 26.5 mph N/A Snow Light Snow
5:35 PM 31.1 °F 21.4 °F 29.8 °F 95% 29.90 in 1.8 mi West 12.7 mph 23.0 mph N/A Snow Light Snow
5:55 PM 30.7 °F 20.0 °F 29.3 °F 94% 29.91 in 1.5 mi West 15.0 mph 24.2 mph N/A Snow Light Snow
6:15 PM 30.2 °F 19.3 °F 28.9 °F 95% 29.92 in 1.5 mi West 15.0 mph 21.9 mph N/A Snow Light Snow
6:35 PM 29.5 °F 16.2 °F 28.0 °F 94% 29.92 in 1.5 mi West 21.9 mph 29.9 mph 0.01 in Snow Light Snow
6:55 PM 28.9 °F 15.4 °F 26.6 °F 91% 29.93 in 4.0 mi WNW 21.9 mph 28.8 mph 0.01 in Snow Light Snow
8:14 PM 26.8 °F 14.1 °F 22.1 °F 83% 29.95 in 10.0 mi WNW 17.3 mph 29.9 mph N/A   Overcast
8:35 PM 25.9 °F 13.3 °F 22.1 °F 86% 29.96 in 5.0 mi West 16.1 mph 28.8 mph N/A   Overcast
8:55 PM 25.5 °F 11.6 °F 21.0 °F 83% 29.97 in 7.0 mi WNW 19.6 mph 28.8 mph N/A   Overcast
9:15 PM 25.2 °F 10.1 °F 19.9 °F 81% 29.98 in 10.0 mi WNW 23.0 mph 31.1 mph N/A   Overcast
9:35 PM 24.8 °F 11.1 °F 19.9 °F 82% 29.98 in 10.0 mi WNW 18.4 mph 27.6 mph N/A   Overcast
9:54 PM 24.6 °F 9.4 °F 19.4 °F 81% 29.99 in 7.0 mi West 23.0 mph 28.8 mph N/A   Overcast
10:14 PM 23.7 °F 9.7 °F 16.9 °F 75% 30.00 in 10.0 mi WNW 18.4 mph 27.6 mph N/A   Overcast
10:35 PM 23.0 °F 10.6 °F 18.9 °F 84% 30.00 in 4.0 mi WNW 13.8 mph 23.0 mph N/A Snow Light Snow
10:55 PM 22.6 °F 8.3 °F 20.1 °F 90% 30.00 in 2.0 mi WNW 18.4 mph 26.5 mph N/A Snow Light Snow
11:14 PM 22.8 °F 8.9 °F 18.5 °F 83% 30.01 in 5.0 mi NW 17.3 mph 32.2 mph N/A Snow Light Snow
11:34 PM 22.6 °F 5.8 °F 18.9 °F 85% 30.01 in 3.0 mi WNW 26.5 mph 32.2 mph N/A Snow Light Snow
11:54 PM 21.9 °F 8.7 °F 18.5 °F 87% 30.02 in 2.0 mi WNW 15.0 mph 29.9 mph N/A Snow Light Snow